| time (UTC) | temp C | wind direction | speed KPH | gust KPH | rain 1hr cm | rain 24hr cm | rain mn cm | humidity % | barometer mb |
| 20260508074458 | 2 | 213 | 0.0 | 0.0 | 0.00 | 0.13 | 0.03 | 94 | 1012.3 |
| 20260508072959 | 3 | 213 | 0.0 | 0.0 | 0.00 | 0.13 | 0.03 | 94 | 1012.3 |
| 20260508064457 | 3 | 213 | 0.0 | 1.6 | 0.00 | 0.13 | 0.03 | 93 | 1012.5 |
| 20260508061457 | 4 | 213 | 0.0 | 1.6 | 0.00 | 0.13 | 0.03 | 93 | 1012.5 |
| 20260508060001 | 5 | 213 | 0.0 | 1.6 | 0.00 | 0.13 | 0.03 | 93 | 1012.6 |
| 20260508054457 | 5 | 224 | 1.6 | 4.8 | 0.00 | 0.13 | 0.03 | 93 | 1012.6 |
| 20260508052958 | 5 | 221 | 1.6 | 6.4 | 0.03 | 0.13 | 0.03 | 93 | 1012.8 |
| 20260508051457 | 5 | 225 | 1.6 | 3.2 | 0.03 | 0.13 | 0.03 | 94 | 1012.8 |
| 20260508050004 | 5 | 225 | 0.0 | 3.2 | 0.03 | 0.13 | 0.03 | 93 | 1012.7 |
| 20260508044457 | 5 | 236 | 0.0 | 3.2 | 0.03 | 0.13 | 0.03 | 93 | 1012.8 |
| 20260508042957 | 5 | 236 | 0.0 | 0.0 | 0.03 | 0.10 | 0.00 | 93 | 1012.7 |
| 20260508041458 | 5 | 236 | 1.6 | 3.2 | 0.08 | 0.10 | 0.00 | 92 | 1012.6 |
| 20260508040006 | 6 | 236 | 1.6 | 4.8 | 0.08 | 0.10 | 0.00 | 92 | 1012.6 |
| 20260508034501 | 6 | 263 | 1.6 | 6.4 | 0.10 | 0.10 | 0.10 | 91 | 1012.7 |
| 20260508033002 | 6 | 275 | 1.6 | 4.8 | 0.08 | 0.08 | 0.08 | 91 | 1012.6 |
| 20260508031501 | 6 | 238 | 1.6 | 6.4 | 0.03 | 0.03 | 0.03 | 89 | 1012.8 |
| 20260508030007 | 6 | 313 | 3.2 | 11.3 | 0.03 | 0.03 | 0.03 | 87 | 1012.7 |
| 20260508024500 | 6 | 260 | 1.6 | 4.8 | 0.00 | 0.00 | 0.00 | 86 | 1012.8 |
| 20260508023000 | 6 | 277 | 1.6 | 4.8 | 0.00 | 0.00 | 0.00 | 84 | 1012.7 |
| 20260508021500 | 6 | 298 | 3.2 | 6.4 | 0.00 | 0.00 | 0.00 | 83 | 1012.8 |
| 20260508020004 | 7 | 279 | 3.2 | 6.4 | 0.00 | 0.00 | 0.00 | 82 | 1012.6 |
| 20260508014500 | 7 | 277 | 3.2 | 4.8 | 0.00 | 0.00 | 0.00 | 80 | 1012.5 |
| 20260508013000 | 7 | 296 | 3.2 | 6.4 | 0.00 | 0.00 | 0.00 | 79 | 1012.4 |
| 20260508010005 | 7 | 305 | 3.2 | 9.7 | 0.00 | 0.00 | 0.00 | 73 | 1012.1 |
| 20260508004500 | 7 | 274 | 0.0 | 4.8 | 0.00 | 0.00 | 0.00 | 73 | 1011.7 |
| 20260508003001 | 8 | 275 | 0.0 | 0.0 | 0.00 | 0.00 | 0.00 | 75 | 1011.5 |
| 20260508001500 | 8 | 333 | 0.0 | 0.0 | 0.00 | 0.00 | 0.00 | 71 | 1011.5 |
| 20260507234500 | 9 | 333 | 0.0 | 0.0 | 0.00 | 0.13 | 0.00 | 66 | 1011.3 |
| 20260507233000 | 9 | 333 | 1.6 | 4.8 | 0.00 | 0.13 | 0.00 | 61 | 1011.1 |
| 20260507231500 | 9 | 333 | 3.2 | 4.8 | 0.00 | 0.13 | 0.00 | 61 | 1011.2 |
| 20260507221500 | 10 | 323 | 1.6 | 8.0 | 0.00 | 0.33 | 0.00 | 60 | 1011.3 |
| 20260507220009 | 10 | 331 | 3.2 | 4.8 | 0.00 | 0.33 | 0.00 | 60 | 1011.4 |
| 20260507214500 | 10 | 19 | 3.2 | 8.0 | 0.00 | 0.33 | 0.00 | 60 | 1011.3 |
| 20260507213000 | 10 | 328 | 3.2 | 8.0 | 0.00 | 0.33 | 0.00 | 59 | 1011.3 |
| 20260507211500 | 11 | 39 | 3.2 | 8.0 | 0.00 | 0.33 | 0.00 | 59 | 1011.2 |
| 20260507210005 | 10 | 286 | 3.2 | 6.4 | 0.00 | 0.33 | 0.00 | 59 | 1011.2 |
| 20260507204501 | 10 | 86 | 3.2 | 8.0 | 0.00 | 0.33 | 0.00 | 62 | 1011.2 |
| 20260507203000 | 10 | 40 | 1.6 | 6.4 | 0.00 | 0.33 | 0.00 | 66 | 1011.2 |
| 20260507200004 | 10 | 28 | 3.2 | 8.0 | 0.00 | 0.33 | 0.00 | 65 | 1011.3 |
| 20260507193000 | 10 | 336 | 4.8 | 8.0 | 0.00 | 0.33 | 0.00 | 65 | 1011.7 |
| 20260507190005 | 10 | 11 | 6.4 | 14.5 | 0.00 | 0.33 | 0.00 | 66 | 1011.6 |
| 20260507184500 | 11 | 310 | 4.8 | 12.9 | 0.00 | 0.33 | 0.00 | 55 | 1011.7 |
| 20260507183000 | 11 | 299 | 4.8 | 11.3 | 0.00 | 0.33 | 0.00 | 57 | 1011.8 |
| 20260507181500 | 11 | 277 | 6.4 | 16.1 | 0.00 | 0.33 | 0.00 | 57 | 1011.7 |
| 20260507180004 | 12 | 360 | 4.8 | 14.5 | 0.00 | 0.33 | 0.00 | 54 | 1011.9 |
| 20260507174500 | 12 | 284 | 6.4 | 20.9 | 0.00 | 0.36 | 0.00 | 59 | 1011.9 |
| 20260507172959 | 11 | 291 | 4.8 | 19.3 | 0.00 | 0.36 | 0.00 | 60 | 1011.9 |
| 20260507164459 | 11 | 248 | 8.0 | 20.9 | 0.00 | 0.36 | 0.00 | 60 | 1012.5 |
| 20260507162959 | 10 | 265 | 6.4 | 17.7 | 0.00 | 0.36 | 0.00 | 58 | 1012.8 |
| 20260507161459 | 10 | 226 | 3.2 | 11.3 | 0.00 | 0.36 | 0.00 | 61 | 1012.8 |
| 20260507160005 | 10 | 286 | 4.8 | 14.5 | 0.00 | 0.36 | 0.00 | 62 | 1013.0 |
| 20260507154500 | 10 | 269 | 6.4 | 14.5 | 0.00 | 0.36 | 0.00 | 67 | 1013.1 |
| 20260507153000 | 8 | 227 | 6.4 | 12.9 | 0.00 | 0.36 | 0.00 | 66 | 1013.3 |
| 20260507151500 | 9 | 348 | 4.8 | 8.0 | 0.00 | 0.36 | 0.00 | 68 | 1013.4 |
| 20260507150002 | 8 | 350 | 4.8 | 9.7 | 0.00 | 0.36 | 0.00 | 70 | 1013.4 |
| 20260507144458 | 8 | 213 | 3.2 | 9.7 | 0.00 | 0.36 | 0.00 | 68 | 1013.5 |
| 20260507141459 | 7 | 77 | 3.2 | 8.0 | 0.00 | 0.36 | 0.00 | 68 | 1013.4 |
| 20260507140001 | 7 | 308 | 1.6 | 6.4 | 0.00 | 0.36 | 0.00 | 71 | 1013.5 |
| 20260507134459 | 6 | 327 | 1.6 | 8.0 | 0.00 | 0.46 | 0.00 | 75 | 1013.7 |
| 20260507132959 | 6 | 261 | 1.6 | 4.8 | 0.00 | 0.46 | 0.00 | 79 | 1013.9 |
| 20260507131458 | 5 | 223 | 0.0 | 3.2 | 0.00 | 0.46 | 0.00 | 82 | 1014.0 |
| 20260507130001 | 5 | 223 | 0.0 | 3.2 | 0.00 | 0.46 | 0.00 | 82 | 1014.1 |
| 20260507124459 | 5 | 323 | 0.0 | 1.6 | 0.00 | 0.53 | 0.00 | 87 | 1014.0 |
| 20260507122958 | 5 | 323 | 3.2 | 8.0 | 0.00 | 0.53 | 0.00 | 88 | 1014.0 |
| 20260507121459 | 5 | 280 | 0.0 | 3.2 | 0.00 | 0.53 | 0.00 | 97 | 1013.9 |
| 20260507120001 | 5 | 273 | 0.0 | 4.8 | 0.00 | 0.53 | 0.00 | 97 | 1014.1 |
| 20260507114458 | 5 | 183 | 0.0 | 1.6 | 0.00 | 0.66 | 0.00 | 98 | 1013.7 |
| 20260507112958 | 4 | 183 | 1.6 | 3.2 | 0.00 | 0.66 | 0.00 | 98 | 1013.8 |
| 20260507111459 | 4 | 183 | 0.0 | 1.6 | 0.00 | 0.66 | 0.00 | 98 | 1013.3 |
| 20260507110001 | 3 | 183 | 0.0 | 0.0 | 0.00 | 0.66 | 0.00 | 98 | 1013.3 |
| 20260507101458 | 2 | 247 | 0.0 | 0.0 | 0.00 | 0.79 | 0.00 | 97 | 1013.1 |
| 20260507100001 | 2 | 247 | 0.0 | 0.0 | 0.00 | 0.79 | 0.00 | 97 | 1013.1 |
| 20260507094459 | 2 | 247 | 0.0 | 0.0 | 0.00 | 0.91 | 0.00 | 97 | 1013.1 |
| 20260507092959 | 2 | 247 | 0.0 | 0.0 | 0.00 | 0.91 | 0.00 | 96 | 1013.0 |
| 20260507091458 | 2 | 247 | 0.0 | 0.0 | 0.00 | 0.91 | 0.00 | 96 | 1013.2 |
| 20260507090002 | 2 | 247 | 0.0 | 0.0 | 0.00 | 0.91 | 0.00 | 96 | 1013.1 |
| 20260507084458 | 2 | 247 | 0.0 | 0.0 | 0.00 | 1.04 | 0.00 | 96 | 1012.8 |
| 20260507081458 | 2 | 247 | 0.0 | 0.0 | 0.00 | 1.04 | 0.00 | 96 | 1013.3 |
| 20260507080005 | 3 | 247 | 0.0 | 0.0 | 0.00 | 1.04 | 0.00 | 96 | 1013.2 |